DW4326 Weather Reports


time (UTC)temp
F
wind
direction
speed
knots
gust
knots
rain 1hr
in
rain 24hr
in
rain mn
in
humidity
%
barometer
mb
20260903114858 60 199 0.0 1.7 0.00 0.07 0.07 97 1014.2
20260903113358 60 199 0.0 0.0 0.00 0.07 0.07 97 1014.2
20260903111858 60 199 0.0 0.0 0.00 0.07 0.07 97 1014.2
20260903110356 60 199 0.0 1.7 0.00 0.07 0.07 97 1014.1
20260903104853 60 200 0.0 0.9 0.00 0.07 0.07 97 1014.3
20260903103353 59 200 0.0 1.7 0.00 0.07 0.07 97 1014.0
20260903101851 59 199 0.0 1.7 0.00 0.07 0.07 97 1014.0
20260903100350 59 199 0.0 3.5 0.00 0.07 0.07 97 1013.9
20260903094847 59 198 0.0 2.6 0.00 0.07 0.07 97 1013.8
20260903093347 59 204 0.0 0.9 0.00 0.07 0.07 97 1014.0
20260903093250 59 203 0.0 0.0 0.00 0.07 0.07 97 1014.0
20260903090343 59 187 0.0 0.0 0.00 0.07 0.07 97 1014.1
20260903085530 59 188 0.0 0.0 0.00 0.07 0.07 96 1014.3
20260903083343 59 188 0.0 0.0 0.00 0.07 0.07 96 1014.4
20260903081837 59 187 0.0 0.0 0.00 0.07 0.07 96 1014.5
20260903080337 59 187 0.0 0.0 0.00 0.07 0.07 96 1014.6
20260903074834 59 187 0.0 0.0 0.00 0.07 0.07 96 1014.6
20260903073334 59 177 0.0 0.0 0.00 0.07 0.07 96 1014.7
20260903073233 59 199 0.0 0.0 0.00 0.07 0.07 95 1015.1
20260903070335 59 196 0.0 0.0 0.00 0.07 0.07 95 1015.1
20260903064832 60 200 0.0 0.0 0.01 0.07 0.07 95 1014.7
20260903064028 60 186 0.0 0.0 0.07 0.07 0.07 95 1015.0
20260903061832 60 178 0.0 0.0 0.07 0.07 0.07 94 1015.2
20260903060332 61 154 0.0 0.0 0.07 0.07 0.07 92 1015.3
20260903055536 62 154 0.0 0.0 0.06 0.06 0.06 88 1015.6
20260903053333 63 198 0.0 0.0 0.00 0.00 0.00 83 1015.7
20260903052528 63 155 0.0 0.0 0.00 0.00 0.00 83 1015.6
20260903050332 63 142 0.0 0.0 0.00 0.00 0.00 85 1015.8
20260903044831 63 157 0.0 0.0 0.00 0.00 0.00 85 1015.8
20260903043330 63 183 0.0 1.7 0.00 0.00 0.00 86 1015.9
20260903041830 63 153 0.0 5.2 0.00 0.00 0.00 86 1016.0
20260903040327 63 192 0.9 5.2 0.00 0.00 0.00 87 1015.9
20260903035528 63 195 0.0 0.0 0.00 0.00 0.00 87 1015.8
20260903033328 64 190 0.0 0.0 0.00 0.00 0.00 85 1016.1
20260903031828 63 211 0.0 0.0 0.00 0.00 0.00 86 1016.7
20260903030328 63 196 0.0 0.0 0.00 0.01 0.00 87 1016.6
20260903024823 63 163 0.0 0.0 0.00 0.01 0.00 88 1017.1
20260903023324 64 188 0.0 0.0 0.00 0.01 0.00 85 1017.3
20260903021822 64 199 0.0 0.0 0.00 0.01 0.00 84 1017.0
20260903020322 64 199 0.0 0.0 0.00 0.01 0.00 85 1017.2
20260903014824 64 221 0.0 0.0 0.00 0.01 0.00 85 1017.4
20260903013322 64 189 0.0 0.0 0.00 0.01 0.00 86 1017.8
20260903012519 64 192 0.0 1.7 0.00 0.01 0.00 87 1017.7
20260903011724 64 191 0.0 4.3 0.00 0.02 0.00 88 1017.5
20260903004822 64 196 0.0 7.0 0.00 0.03 0.00 90 1017.5
20260903003321 64 196 0.0 5.2 0.00 0.03 0.00 92 1017.5
20260903001818 64 204 0.0 2.6 0.00 0.04 0.00 92 1017.4
20260903000318 64 188 0.0 2.6 0.00 0.04 0.00 91 1017.3
20260902235519 64 194 0.9 5.2 0.00 0.04 0.00 91 1017.1
20260902233315 64 219 0.0 4.3 0.00 0.04 0.00 91 1017.2
20260902231815 64 219 0.0 5.2 0.00 0.04 0.00 92 1017.3
20260902230317 64 196 0.9 6.1 0.00 0.04 0.00 92 1017.7
20260902224815 64 190 0.0 4.3 0.00 0.04 0.00 93 1018.5
20260902223315 64 190 0.0 0.0 0.00 0.04 0.00 92 1018.9
20260902221813 64 190 0.0 0.0 0.00 0.04 0.00 92 1019.2
20260902220309 65 190 0.0 2.6 0.00 0.04 0.00 92 1019.2
20260902214810 65 190 0.9 3.5 0.00 0.04 0.00 90 1019.4
20260902213306 65 187 0.0 3.5 0.00 0.04 0.00 90 1019.2
20260902212459 65 190 0.0 3.5 0.00 0.04 0.00 90 1019.1
20260902211007 66 188 0.0 4.3 0.00 0.04 0.00 87 1019.2
20260902204803 66 190 0.9 4.3 0.00 0.04 0.00 86 1019.2
20260902203302 66 198 0.0 5.2 0.00 0.04 0.00 85 1019.5
20260902203204 66 196 0.0 7.0 0.00 0.04 0.00 86 1019.3
20260902200301 65 188 0.0 3.5 0.00 0.04 0.00 86 1019.4
20260902194757 66 197 0.0 8.7 0.00 0.04 0.00 86 1019.7
20260902193949 65 197 0.0 6.1 0.00 0.04 0.00 86 1019.7
20260902191752 65 191 0.0 4.3 0.00 0.04 0.00 86 1019.8
20260902190252 65 210 0.0 7.0 0.00 0.05 0.00 85 1019.9
20260902184752 66 200 0.9 7.8 0.00 0.05 0.00 84 1019.9
20260902183253 66 192 0.9 6.1 0.00 0.05 0.00 85 1020.1
20260902181746 66 180 0.9 7.8 0.00 0.05 0.00 85 1020.4
20260902180248 66 218 1.7 10.4 0.00 0.05 0.00 84 1020.4
20260902175436 66 201 0.9 8.7 0.00 0.05 0.00 83 1020.2
20260902173247 66 195 2.6 8.7 0.00 0.05 0.00 82 1020.0
20260902171747 66 184 1.7 9.6 0.00 0.05 0.00 82 1020.1
20260902170246 66 219 2.6 8.7 0.00 0.05 0.00 82 1020.2
20260902164747 66 194 1.7 6.1 0.00 0.05 0.00 82 1020.4
20260902163246 65 196 1.7 7.0 0.00 0.05 0.00 82 1020.5
20260902161746 65 178 0.0 0.0 0.00 0.05 0.00 82 1020.6
20260902160244 66 199 0.0 0.0 0.00 0.05 0.00 81 1020.6
20260902154744 65 196 0.0 0.0 0.00 0.05 0.00 84 1020.8
20260902153244 64 206 0.0 0.0 0.00 0.05 0.00 82 1020.9
20260902151745 64 213 0.0 0.0 0.00 0.05 0.00 82 1021.2
20260902150244 64 193 0.0 0.0 0.00 0.05 0.00 83 1021.2
20260902144741 64 195 0.0 0.0 0.00 0.05 0.00 87 1021.1
20260902143241 64 190 0.0 0.0 0.00 0.05 0.00 87 1021.0
20260902141738 64 189 0.0 0.0 0.00 0.05 0.00 88 1020.9
20260902140933 63 153 0.0 0.0 0.00 0.05 0.00 90 1020.8
20260902134735 63 184 0.0 0.0 0.00 0.06 0.00 91 1020.8
20260902133233 62 201 0.0 0.0 0.00 0.06 0.00 91 1020.7
20260902131732 62 183 0.0 0.0 0.00 0.07 0.00 92 1020.4
20260902130230 62 205 0.0 0.0 0.00 0.07 0.00 94 1020.4
20260902124724 61 166 0.0 0.0 0.00 0.08 0.00 95 1020.6
20260902123223 60 192 0.0 0.0 0.00 0.08 0.00 96 1020.6
20260902122419 60 198 0.0 0.0 0.00 0.11 0.00 97 1020.6
20260902121621 60 215 0.0 0.0 0.00 0.14 0.00 98 1020.6